Location: Albuquerque Trailhead
(34.7934°N, 106.3736°W)
Time: 00:15:48
(UTC+00:00)

CZ-2C R/B - Pass Details

Date: 20 June 2021
Orbit: 667 x 785 km, 98.2° (Epoch: 01 August)

Event Time Altitude Azimuth Distance (km) Brightness Sun altitude
Rises 10:27:40 0° 17° (NNE) 3,178 6.8 -14.8°
Reaches altitude 10° 10:30:03 10° 22° (NNE) 2,233 6.0 -14.5°
Maximum altitude 10:34:51 55° 100° (E) 852 3.0 -13.8°
Drops below altitude 10° 10:39:28 10° 178° (S) 2,146 4.5 -13.0°
Enters shadow 10:40:12 - 180° (S) 2,442 4.7 -12.9°
